Overview Statistics Trail Chart Weather Telemetry Raw packets
 

This is the latest recevied weather packets stored in our database for station/object KV4OP. If no packets are shown the sender has not sent any weather packets the latest 10 day(s).

<< 16 17 18 19 20 21 22 >>
Time Temp. Humidity Pressure Rain* Wind** Luminosity Snow
1788539109 32.22° C 75% 1016.9 hPa 0 mm - - -
1788538818 32.22° C 74% 1016.9 hPa 0 mm - - -
1788538510 32.22° C 74% 1016.9 hPa 0 mm - - -
1788538234 32.22° C 76% 1017 hPa 0 mm - - -
1788537909 31.67° C 75% 1017 hPa 0 mm - - -
1788537619 32.22° C 75% 1017 hPa 0 mm - - -
1788537309 31.67° C 74% 1017 hPa 0 mm - - -
1788537011 31.67° C 75% 1017 hPa 0 mm - - -
1788536710 31.67° C 75% 1017.1 hPa 0 mm - - -
1788536418 31.67° C 76% 1017 hPa 0 mm - - -
1788536110 31.67° C 75% 1017.1 hPa 0 mm - - -
1788535810 31.67° C 76% 1017.1 hPa 0 mm - - -
1788535510 31.11° C 75% 1017.1 hPa 0 mm - - -
1788535222 31.67° C 76% 1017.1 hPa 0 mm - - -
1788534910 31.11° C 76% 1017 hPa 0 mm - - -
1788534610 31.11° C 76% 1017 hPa 0 mm - - -
1788534310 31.11° C 77% 1016.9 hPa 0 mm - - -
1788534019 31.11° C 78% 1016.9 hPa 0 mm - - -
1788533710 30.56° C 76% 1016.9 hPa 0 mm - - -
1788533410 30.56° C 79% 1016.9 hPa 0 mm - - -
1788533110 30.56° C 78% 1016.9 hPa 0 mm - - -
1788532820 30.56° C 79% 1016.8 hPa 0 mm - - -
1788532510 30.56° C 79% 1016.7 hPa 0 mm - - -
1788532210 30.56° C 80% 1016.6 hPa 0 mm - - -
1788531911 30° C 81% 1016.7 hPa 0 mm - - -

* Rain latest hour (hover to see other rain measurements)
** Current wind speed in m/s (hover to see current wind gust speed)